Temperature
18 18 18 18 18 18 18 18 18 18 18 18 18 18 18 18 18 18 18 18 18 18 18 18 18 18 18 18 18 18 18 18 18 18 18 18 18 18 18 18 18 18 18
18 18 18 18 18 18 18 18 18 18 18 18 18 18 18 18 18 18 18 18 18 18 18 18 18 18 18 18 18 18 18 18 18 18 18 18 18 18 18 18 18 18 18
18 18 18 18 18 18 18 18 18 18 18 18 18 18 18 18 18 18 18 18 18 18 18 18 18 18 18 18 18 18 18 18 17 17 18 18 17 17 18 18 18 17 18
18 18 18 18 18 18 18 18 18 18 18 18 18 18 18 18 18 18 17 18 18 18 18 18 18 17 17 17 17 17 17 17 17 17 17 17 17 17 17 18 17 17 17
18 18 18 18 18 18 18 18 17 17 18 18 18 18 17 17 17 17 17 17 18 18 17 17 17 17 17 17 17 17 17 17 17 17 17 17 17 17 17 17 17 17 17
18 18 18 18 18 18 18 18 17 17 17 17 17 17 17 17 17 17 17 17 17 17 17 17 17 17 17 17 17 17 17 17 17 17 17 17 17 17 17 17 17 17 17
18 18 18 18 18 18 18 17 17 17 17 17 17 17 17 17 17 17 17 17 17 17 17 17 17 17 17 17 17 17 17 17 17 17 17 17 17 17 17 17 17 17 17
18 18 18 18 18 18 17 17 17 17 17 17 17 17 17 17 17 17 17 17 17 17 17 17 17 17 17 17 17 17 17 17 17 17 17 17 17 17 17 17 17 17 17
18 18 18 18 18 18 17 17 17 17 17 17 17 17 17 17 17 17 17 17 17 17 17 17 17 16 16 16 16 16 16 17 17 17 16 16 16 17 17 17 17 16 16
18 18 18 18 18 17 17 17 17 17 17 17 17 17 17 17 17 17 17 17 17 17 16 16 16 16 16 16 16 16 16 16 16 16 16 16 16 16 16 16 16 16 16
18 18 18 18 17 17 17 17 17 17 17 17 17 17 17 17 16 16 16 16 16 16 16 16 16 16 16 16 16 16 16 16 16 16 16 16 16 16 16 16 16 16 16
18 18 18 18 17 17 17 17 17 17 17 17 17 17 16 16 16 16 16 16 16 16 16 16 16 16 16 16 16 16 16 16 16 16 16 16 16 16 16 16 16 16 16
18 18 18 17 17 17 17 17 17 17 17 17 17 16 16 16 16 16 16 16 16 16 16 16 16 16 16 16 16 16 16 16 15 15 15 15 15 15 15 15 15 15 15
18 18 18 17 17 17 17 17 17 17 16 16 16 16 16 16 16 16 16 16 16 16 16 16 16 16 16 16 16 15 15 15 15 15 15 15 15 15 15 15 15 15 15
18 18 18 18 17 17 17 17 17 17 17 16 16 16 16 16 16 16 16 16 16 16 16 16 16 15 15 15 15 15 15 15 15 15 15 15 15 15 15 15 15 15 15
18 18 18 18 17 17 17 17 17 17 17 16 16 16 16 16 16 16 16 16 16 16 15 15 15 15 15 15 15 15 15 15 15 15 15 15 15 15 14 14 15 15 14
19 18 18 18 17 17 17 17 17 17 17 16 16 16 16 16 16 16 16 16 16 15 15 15 15 15 15 15 15 15 15 15 15 15 15 14 14 14 14 14 14 14 14
19 18 18 18 17 17 17 17 17 17 16 16 16 16 16 16 16 16 16 15 15 15 15 15 15 15 15 15 15 14 14 14 14 14 14 14 14 14 14 14 14 14 14
19 18 18 18 17 17 17 17 17 17 16 16 16 16 16 16 16 16 15 15 15 15 15 15 15 15 15 15 14 14 14 14 14 14 14 14 14 14 14 14 14 14 14
19 18 18 18 17 17 17 17 17 16 16 16 16 16 16 15 15 15 15 15 15 15 15 15 15 15 15 15 14 14 14 14 14 14 14 14 14 14 14 14 14 14 14
18 18 18 18 17 17 17 17 16 16 16 16 16 16 15 15 15 15 15 15 15 15 15 15 15 15 15 14 14 14 14 14 14 14 14 13 13 13 13 13 13 13 13
18 18 18 18 18 17 17 17 16 16 16 16 16 16 15 15 15 15 15 15 15 15 15 15 15 14 14 14 14 14 13 13 13 13 13 13 13 13 13 13 13 13 13
18 18 18 18 17 17 17 17 16 16 16 16 16 15 15 15 15 15 15 15 15 15 15 15 14 14 14 14 14 14 13 13 13 13 13 13 13 13 13 13 13 13 13
18 18 17 17 17 17 17 17 16 16 16 15 15 15 15 15 15 15 15 15 15 14 14 14 14 14 14 14 14 14 13 13 13 12 13 13 13 13 13 13 13 13 13
17 17 17 17 17 17 17 16 16 16 16 15 15 15 15 15 15 15 15 14 14 14 14 14 14 14 14 14 14 13 13 13 13 12 12 13 13 13 12 12 13 13 13
17 17 17 17 17 17 16 16 16 16 15 15 15 15 15 15 15 14 14 14 14 14 14 14 14 14 14 14 13 13 13 13 13 13 12 12 12 13 12 12 12 13 13
Wind_Speed
1 0 4 6 8 9 9 10 10 11 11 12 13 13 13 13 13 13 12 12 12 12 12 12 12 12 11 10 10 9 9 9 9 9 8 8 8 7 7 8 7 6 8
3 3 5 7 8 9 10 10 9 10 11 11 12 12 13 12 12 12 12 12 12 12 12 11 11 11 12 11 10 10 10 9 9 9 8 7 7 7 7 8 7 7 8
5 4 5 8 9 9 10 9 9 9 10 11 12 12 12 12 12 12 12 12 12 12 12 12 11 11 12 11 11 11 10 9 9 9 8 6 5 6 8 8 8 8 8
6 5 6 8 9 10 9 10 9 9 10 11 11 12 12 12 12 12 12 12 12 12 12 11 11 11 12 12 12 11 10 9 9 9 7 5 5 7 8 9 10 9 9
6 5 7 8 9 9 10 10 10 10 10 11 11 12 12 12 12 12 12 12 11 11 11 11 11 11 12 12 11 11 12 11 11 10 8 7 7 9 11 11 11 10 9
5 5 7 9 9 9 9 10 10 10 10 11 11 12 12 12 12 12 12 12 11 11 11 11 11 11 11 11 11 11 12 13 12 10 9 8 8 11 12 12 12 11 10
5 5 7 8 9 9 9 9 9 10 11 11 11 11 11 11 12 12 12 11 12 12 12 12 11 11 11 11 10 11 12 13 11 10 8 8 9 11 12 13 12 12 11
7 5 7 8 8 8 9 10 10 10 11 11 11 11 11 11 11 11 11 11 11 11 12 12 12 12 12 11 11 12 13 12 11 9 8 8 10 11 12 13 13 13 12
6 5 4 6 6 7 8 9 9 10 10 10 10 10 9 9 10 10 10 10 10 11 11 11 12 13 14 14 13 13 13 13 10 7 8 7 10 12 12 12 13 12 12
5 5 4 4 5 5 5 7 8 8 8 9 9 9 8 8 8 8 9 9 9 10 10 11 11 12 13 14 14 13 13 11 10 8 6 8 11 12 12 13 13 12 12
5 3 4 3 4 4 4 5 6 7 6 6 6 7 6 5 5 5 7 8 9 9 9 10 10 11 12 13 13 13 11 8 8 7 6 9 12 13 13 13 13 12 12
4 3 3 4 4 3 4 4 4 5 5 5 5 5 5 4 4 5 5 7 8 8 8 9 10 10 10 9 10 11 8 8 8 6 8 11 12 12 13 13 13 12 12
4 4 3 4 4 3 2 3 3 3 3 4 4 5 5 5 4 4 4 5 5 6 6 7 8 7 7 6 7 8 8 8 7 7 8 11 12 12 12 12 12 12 11
5 5 4 5 4 3 3 2 3 2 3 3 3 5 5 3 3 2 2 3 3 4 4 4 4 5 6 6 7 7 7 7 7 7 9 11 11 11 11 11 10 10 10
6 5 5 5 5 4 3 2 3 2 2 3 4 4 5 3 2 2 2 2 3 4 3 3 3 4 4 5 6 7 6 7 8 8 8 11 11 10 11 11 10 9 10
6 5 5 6 5 5 4 3 2 3 3 4 4 4 5 5 3 2 2 2 2 3 3 3 4 3 3 4 4 5 6 6 7 8 8 9 11 10 10 10 10 9 9
6 5 6 6 5 5 4 3 3 3 4 4 3 4 5 4 4 3 2 2 2 4 5 5 5 4 4 4 4 4 4 5 5 6 7 7 8 10 10 9 9 9 9
6 6 5 6 5 4 4 3 2 3 4 3 4 4 4 4 5 4 2 2 2 4 3 3 3 4 4 3 3 3 3 3 4 5 6 6 6 7 9 9 8 8 7
6 6 5 6 5 4 4 3 3 3 3 3 4 4 4 5 5 4 2 2 3 3 2 2 3 2 3 3 3 3 2 2 2 4 4 5 5 6 6 7 8 7 7
6 6 5 5 4 4 3 3 2 3 2 3 3 4 5 5 5 4 2 2 3 2 2 2 3 2 2 2 3 3 2 2 2 2 2 3 4 4 5 5 6 6 7
5 5 5 5 4 3 2 2 2 1 1 1 2 3 4 5 5 4 2 2 2 2 2 2 2 3 2 2 3 3 4 3 3 1 1 2 2 3 3 4 4 4 4
5 4 4 4 4 4 3 2 2 2 1 1 1 2 3 3 4 4 3 2 2 3 3 2 2 2 1 2 2 2 2 4 3 2 1 1 1 2 2 2 3 3 3
4 4 4 3 3 4 4 3 2 2 2 2 2 1 2 3 3 3 3 3 2 2 2 1 2 3 1 1 2 3 2 1 2 3 2 1 2 1 0 1 2 2 2
4 4 3 4 3 3 4 4 4 3 2 1 1 1 2 2 3 3 3 3 2 2 2 1 2 2 3 1 0 1 2 3 2 1 3 2 2 1 1 0 1 2 2
4 4 3 3 3 3 4 5 4 3 2 1 1 1 1 2 2 3 3 3 2 2 2 2 2 2 2 2 1 1 1 1 2 2 1 3 3 3 2 1 1 2 3
3 3 3 3 3 3 4 4 5 4 3 3 2 1 0 0 1 2 2 2 2 1 1 2 2 2 1 2 1 1 2 2 1 1 1 2 2 3 2 2 1 2 3
Wind_Direction
287 20 66 66 72 71 70 70 69 70 70 73 74 73 74 72 71 70 73 74 74 74 73 73 71 69 66 64 68 70 73 78 75 77 79 83 82 87 92 101 105 103 107
159 124 92 82 77 74 73 75 74 75 73 75 77 76 76 74 72 71 71 73 73 73 72 71 69 67 64 61 64 65 69 75 74 73 77 83 85 90 98 105 107 105 108
127 116 100 91 83 78 76 77 77 79 80 81 81 81 79 77 75 73 71 71 70 70 69 68 65 64 62 60 61 63 64 67 71 73 73 77 86 94 104 106 106 103 106
123 117 106 95 87 81 77 78 80 84 85 85 85 85 82 79 76 75 73 71 69 67 67 66 64 63 62 62 62 63 64 67 72 74 69 65 75 92 103 106 104 100 99
117 116 112 101 93 87 82 80 81 84 88 87 86 88 84 81 77 75 72 72 70 68 65 64 63 62 61 63 62 62 63 69 75 73 66 57 70 88 98 101 100 96 95
119 120 118 109 101 94 88 81 81 86 91 92 90 90 86 83 80 76 72 72 71 70 66 62 61 61 61 63 65 67 68 68 70 66 63 62 73 88 95 95 95 94 93
130 128 125 116 108 100 93 85 83 91 97 95 96 93 89 85 81 77 74 73 70 68 65 61 60 58 58 61 65 69 69 69 67 61 60 65 76 87 94 93 91 92 92
136 135 126 121 115 106 97 89 85 93 99 98 97 95 91 86 82 78 75 73 71 70 67 64 61 57 55 59 66 69 68 69 67 64 61 66 81 88 91 92 91 91 90
128 121 118 126 118 111 102 97 94 96 98 101 98 96 92 90 85 79 75 72 71 70 67 63 60 59 59 61 66 68 68 66 60 61 71 72 83 88 90 90 90 90 90
118 121 122 131 126 121 112 102 101 101 99 98 99 100 94 87 81 76 72 69 69 68 65 62 59 61 63 65 65 68 67 62 54 56 65 78 82 85 86 87 86 86 85
118 127 128 131 133 130 121 105 101 99 98 96 95 96 90 84 81 77 73 71 68 65 62 63 63 63 65 67 67 67 66 62 57 60 66 79 81 82 83 83 83 82 82
136 143 138 131 126 120 115 106 100 98 92 87 85 84 86 85 81 84 73 70 64 60 59 59 59 61 63 67 66 65 67 60 57 57 73 81 83 85 82 79 77 76 76
151 137 142 140 132 125 110 116 105 90 88 85 82 80 83 80 71 67 64 57 54 54 52 50 51 57 64 72 74 70 67 62 57 57 68 77 81 82 81 80 76 75 74
132 143 143 137 130 130 120 114 101 90 89 92 93 93 97 86 72 65 58 50 49 50 52 54 54 59 65 74 81 77 71 69 61 58 66 70 74 77 78 78 78 77 74
132 141 144 133 130 129 121 107 95 95 98 105 105 104 109 105 91 80 56 50 48 53 56 54 59 63 66 70 80 85 79 73 69 65 65 66 67 70 74 77 77 78 78
147 145 138 132 137 129 121 113 109 100 100 93 102 110 113 113 113 99 78 62 55 61 65 73 75 79 75 79 73 79 82 80 76 69 64 60 63 67 70 73 74 74 79
156 145 139 141 131 129 131 126 110 104 95 91 100 100 105 113 119 112 88 54 53 71 70 67 64 72 75 76 70 73 81 83 83 74 66 62 60 62 67 71 72 71 73
147 145 144 135 129 134 136 130 107 98 95 93 92 94 105 109 113 104 85 58 67 81 76 69 61 62 64 70 69 61 70 83 82 82 78 73 68 64 63 66 72 69 70
149 144 136 131 134 145 139 126 107 96 92 91 91 86 95 101 105 105 89 76 82 77 66 79 72 84 76 65 73 62 55 69 79 88 80 77 76 74 69 63 66 65 63
143 138 130 126 137 140 128 104 85 78 68 65 77 81 86 91 99 103 93 70 86 81 60 69 87 76 90 79 75 55 29 28 60 76 80 85 83 80 78 73 67 60 58
125 130 134 129 137 127 117 121 118 119 102 56 53 75 87 94 102 103 80 69 73 87 88 85 91 86 61 71 70 36 11 21 42 41 59 75 79 89 88 86 85 72 57
137 138 135 141 142 147 142 145 153 146 159 149 36 47 76 90 102 101 99 88 79 85 70 64 91 90 66 80 105 89 23 357 1 18 25 47 35 87 91 92 97 91 77
135 152 152 147 145 141 137 118 92 72 48 31 19 15 23 77 90 93 97 100 88 88 101 98 110 112 127 18 91 119 127 221 308 335 345 357 350 15 26 118 126 120 107
158 153 150 153 142 142 136 127 128 131 138 226 234 7 4 47 77 87 94 97 100 91 97 101 100 116 132 141 340 45 133 154 147 307 323 331 324 312 303 296 158 161 161
152 147 147 142 143 133 138 139 135 124 152 146 111 80 13 7 35 62 88 94 96 98 103 97 82 96 128 145 148 115 76 72 100 144 271 313 324 304 293 264 207 183 187
133 130 135 131 141 144 142 143 145 148 148 126 120 116 7 3 15 27 79 84 92 97 107 116 104 106 127 136 135 129 137 143 166 147 196 258 287 297 296 275 230 202 204
Height
1530 1528 1527 1526 1525 1523 1522 1521 1520 1519 1519 1518 1517 1517 1516 1516 1515 1515 1514 1513 1512 1512 1511 1510 1509 1508 1508 1507 1506 1506 1505 1505 1504 1504 1504 1504 1503 1503 1504 1504 1505 1505 1506
1530 1529 1528 1527 1525 1524 1523 1522 1521 1520 1519 1518 1518 1518 1517 1517 1516 1516 1515 1515 1514 1513 1512 1511 1510 1509 1508 1507 1506 1506 1505 1504 1504 1503 1503 1503 1502 1502 1503 1504 1505 1506 1506
1531 1530 1529 1528 1526 1525 1524 1523 1522 1521 1520 1519 1519 1518 1518 1517 1517 1517 1516 1516 1515 1514 1513 1512 1512 1511 1509 1508 1507 1506 1505 1503 1502 1502 1502 1501 1500 1500 1501 1503 1505 1506 1506
1532 1531 1530 1529 1527 1526 1525 1523 1522 1521 1521 1520 1520 1519 1519 1518 1518 1517 1517 1517 1516 1515 1514 1514 1513 1512 1511 1509 1508 1506 1503 1500 1500 1501 1501 1499 1497 1497 1499 1502 1504 1506 1507
1533 1532 1531 1530 1528 1527 1526 1524 1523 1522 1522 1521 1521 1520 1520 1520 1519 1519 1518 1518 1517 1516 1516 1515 1514 1513 1512 1511 1509 1507 1502 1498 1498 1500 1501 1500 1497 1496 1498 1502 1505 1506 1507
1533 1533 1532 1531 1530 1528 1527 1526 1524 1523 1522 1522 1522 1522 1521 1521 1521 1520 1519 1519 1518 1517 1517 1516 1515 1514 1513 1512 1510 1508 1505 1501 1501 1502 1503 1502 1501 1500 1502 1504 1506 1508 1508
1534 1534 1533 1532 1531 1530 1529 1527 1525 1523 1523 1523 1523 1523 1523 1523 1522 1522 1521 1520 1520 1519 1518 1517 1516 1515 1514 1513 1512 1510 1508 1507 1506 1507 1506 1506 1505 1505 1506 1507 1508 1509 1509
1535 1535 1534 1533 1532 1531 1530 1528 1526 1524 1524 1525 1525 1525 1525 1525 1524 1524 1523 1522 1521 1520 1520 1519 1518 1517 1516 1515 1514 1512 1511 1510 1509 1509 1509 1509 1508 1508 1508 1509 1510 1510 1511
1537 1536 1535 1535 1534 1533 1532 1531 1529 1528 1527 1527 1527 1527 1527 1526 1526 1525 1525 1524 1523 1522 1521 1520 1520 1519 1518 1517 1516 1515 1514 1513 1512 1512 1512 1512 1512 1511 1511 1511 1512 1512 1513
1538 1537 1536 1536 1535 1535 1534 1533 1532 1531 1530 1529 1529 1529 1528 1528 1527 1527 1526 1526 1525 1524 1523 1522 1521 1520 1520 1519 1518 1517 1516 1516 1515 1515 1515 1515 1514 1514 1514 1514 1514 1514 1514
1539 1538 1538 1537 1537 1536 1535 1534 1534 1533 1532 1531 1531 1531 1530 1529 1529 1529 1528 1528 1527 1526 1525 1524 1524 1523 1522 1521 1520 1520 1519 1518 1518 1518 1517 1517 1517 1516 1516 1516 1516 1516 1516
1539 1539 1539 1538 1538 1537 1537 1536 1535 1534 1534 1533 1532 1532 1531 1531 1531 1530 1530 1529 1529 1528 1527 1526 1526 1525 1524 1523 1522 1522 1521 1520 1520 1520 1520 1519 1519 1519 1519 1518 1518 1518 1517
1539 1540 1540 1539 1539 1538 1538 1537 1536 1536 1535 1534 1534 1533 1533 1532 1532 1532 1531 1531 1530 1529 1529 1528 1527 1527 1526 1525 1524 1524 1523 1522 1522 1522 1522 1521 1521 1521 1520 1520 1519 1519 1519
1540 1540 1540 1540 1540 1540 1539 1538 1537 1537 1536 1535 1535 1534 1534 1534 1533 1533 1533 1532 1532 1531 1530 1530 1529 1528 1528 1527 1526 1526 1525 1524 1524 1524 1523 1523 1523 1522 1521 1521 1521 1521 1521
1540 1540 1540 1541 1540 1540 1540 1539 1538 1537 1537 1536 1535 1535 1535 1535 1534 1534 1534 1533 1533 1532 1532 1531 1530 1530 1529 1528 1528 1527 1527 1526 1526 1525 1525 1525 1524 1523 1523 1522 1522 1521 1521
1540 1540 1541 1541 1541 1540 1540 1539 1539 1538 1537 1537 1536 1536 1536 1535 1535 1534 1534 1534 1534 1533 1533 1532 1532 1531 1530 1530 1529 1529 1528 1528 1527 1527 1526 1526 1525 1525 1524 1523 1523 1523 1522
1540 1540 1541 1541 1541 1541 1540 1540 1539 1539 1538 1537 1537 1536 1536 1536 1535 1535 1535 1534 1534 1534 1534 1533 1533 1532 1531 1531 1530 1530 1530 1529 1529 1528 1527 1526 1526 1525 1525 1524 1524 1523 1523
1539 1540 1540 1541 1541 1541 1541 1540 1540 1539 1539 1538 1537 1537 1536 1536 1535 1535 1535 1535 1535 1534 1534 1534 1533 1533 1532 1532 1531 1531 1531 1530 1530 1529 1528 1528 1527 1526 1526 1525 1524 1524 1523
1539 1539 1540 1540 1541 1541 1541 1540 1540 1540 1539 1538 1538 1537 1536 1536 1535 1535 1535 1535 1535 1535 1534 1534 1533 1533 1533 1532 1532 1532 1532 1531 1531 1530 1530 1529 1528 1528 1527 1525 1525 1525 1524
1539 1539 1540 1540 1540 1541 1540 1540 1540 1540 1539 1539 1538 1537 1537 1536 1535 1535 1535 1535 1535 1534 1534 1534 1533 1533 1533 1533 1532 1532 1532 1532 1532 1531 1531 1530 1529 1529 1528 1527 1526 1525 1525
1538 1539 1539 1539 1540 1540 1540 1539 1539 1539 1539 1539 1538 1538 1537 1537 1536 1536 1535 1535 1534 1534 1534 1534 1533 1533 1533 1533 1532 1532 1533 1533 1532 1532 1531 1531 1530 1529 1529 1528 1527 1526 1525
1537 1538 1538 1539 1539 1539 1539 1539 1539 1539 1539 1539 1538 1538 1538 1537 1536 1536 1535 1534 1534 1534 1534 1533 1533 1533 1532 1532 1532 1532 1532 1534 1533 1532 1532 1531 1531 1530 1529 1528 1527 1527 1526
1536 1537 1538 1538 1539 1539 1539 1539 1539 1538 1538 1538 1538 1537 1537 1537 1536 1535 1535 1534 1534 1533 1533 1533 1532 1532 1532 1532 1532 1533 1532 1532 1532 1532 1532 1531 1531 1530 1529 1529 1528 1527 1526
1535 1536 1537 1537 1537 1538 1538 1537 1537 1537 1537 1537 1537 1536 1536 1536 1536 1535 1535 1534 1533 1533 1532 1532 1532 1531 1531 1531 1532 1532 1532 1532 1532 1531 1531 1531 1530 1530 1529 1529 1528 1527 1526
1534 1535 1535 1536 1536 1536 1536 1536 1536 1536 1536 1536 1536 1536 1536 1535 1535 1534 1534 1533 1533 1532 1532 1531 1531 1531 1530 1530 1530 1531 1531 1531 1530 1530 1529 1529 1529 1529 1528 1528 1527 1527 1526
1533 1533 1534 1534 1534 1534 1535 1535 1534 1534 1534 1534 1534 1534 1534 1534 1534 1533 1533 1532 1532 1531 1531 1530 1530 1530 1529 1529 1529 1529 1529 1529 1529 1529 1528 1527 1527 1527 1527 1527 1526 1526 1525